Weather History for KPVW - October, 2012

Change the Weather History Date:

Saturday, October 6, 2012

  Actual Average Record
Temperature  
Mean Temperature 44 °F -  
Max Temperature 50 °F 76 °F 94 °F (1918)
Min Temperature 39 °F 49 °F 36 °F (2013)
Degree Days  
Heating Degree Days 20    
Moisture  
Dew Point 31 °F    
Average Humidity 60    
Maximum Humidity 71    
Minimum Humidity 50    
Precipitation  
Precipitation 0.00 in - - ()
Sea Level Pressure  
Sea Level Pressure 30.21 in    
Wind  
Wind Speed 14 mph (ENE)    
Max Wind Speed 22 mph    
Max Gust Speed 28 mph    
Visibility 10 miles    
Events      
Averages and records for this station are not official NWS values.
T = Trace of Precipitation, MM = Missing Value Source: NWS Daily Summary

Daily Weather History Graph

Daily Weather History Graph

Search for Another Location

Airport or City:

Trip Planner

Search our weather history database for the weather conditions in past years. The results will help you decide how hot, cold, wet, or windy it might be!

Date:

Astronomy

Oct. 06, 2012 Rise Set
Actual Time 7:45 AM CDT 7:23 PM CDT
Civil Twilight 7:20 AM CDT 7:48 PM CDT
Nautical Twilight 6:51 AM CDT 8:17 PM CDT
Astronomical Twilight 6:22 AM CDT 8:46 PM CDT
Moon 11:52 PM CDT (10/6) 1:29 PM CDT (10/6)
Length of Visible Light 12h 28m
Length of Day
11h 38m
Waning Gibbous, 65% of the Moon is Illuminated
Oct 6
Waning Gibbous
Oct 8
Last Quarter
Oct 15
New
Oct 21
First Quarter
Oct 29
Full

Hourly Weather History & Observations

Time (CDT) Temp. Windchill Dew Point Humidity Pressure Visibility Wind Dir Wind Speed Gust Speed Precip Events Conditions
12:15 AM 50.0 °F - 41.0 °F 71% 30.18 in 10.0 mi East 13.8 mph 20.7 mph N/A   Clear
12:35 AM 50.0 °F - 39.2 °F 66% 30.18 in 10.0 mi East 16.1 mph 19.6 mph N/A   Mostly Cloudy
12:55 AM 50.0 °F - 37.4 °F 62% 30.18 in 10.0 mi East 18.4 mph 21.9 mph N/A   Overcast
1:15 AM 50.0 °F - 35.6 °F 58% 30.18 in 10.0 mi East 15.0 mph 23.0 mph N/A   Overcast
1:35 AM 50.0 °F - 35.6 °F 58% 30.18 in 10.0 mi East 19.6 mph 25.3 mph N/A   Overcast
1:55 AM 50.0 °F - 35.6 °F 58% 30.18 in 10.0 mi ENE 16.1 mph 27.6 mph N/A   Overcast
2:15 AM 50.0 °F - 35.6 °F 58% 30.19 in 10.0 mi ENE 21.9 mph 25.3 mph N/A   Overcast
2:35 AM 46.4 °F 39.0 °F 32.0 °F 57% 30.19 in 10.0 mi ENE 19.6 mph 26.5 mph N/A   Overcast
2:55 AM 46.4 °F 39.2 °F 33.8 °F 62% 30.20 in 10.0 mi East 18.4 mph 24.2 mph N/A   Overcast
3:15 AM 46.4 °F 40.1 °F 33.8 °F 62% 30.20 in 10.0 mi ENE 15.0 mph 24.2 mph N/A   Overcast
3:35 AM 44.6 °F 37.4 °F 32.0 °F 61% 30.19 in 10.0 mi East 16.1 mph 27.6 mph N/A   Overcast
3:55 AM 42.8 °F 35.8 °F 32.0 °F 66% 30.19 in 10.0 mi ENE 13.8 mph - N/A   Overcast
4:35 AM 42.8 °F 36.2 °F 32.0 °F 66% 30.20 in 10.0 mi ENE 12.7 mph 19.6 mph N/A   Overcast
4:55 AM 42.8 °F 36.2 °F 32.0 °F 66% 30.18 in 10.0 mi ENE 12.7 mph 19.6 mph N/A   Overcast
5:15 AM 42.8 °F 35.1 °F 32.0 °F 66% 30.19 in 10.0 mi ENE 16.1 mph 19.6 mph N/A   Overcast
5:35 AM 42.8 °F 35.8 °F 30.2 °F 61% 30.20 in 10.0 mi ENE 13.8 mph 20.7 mph N/A   Overcast
5:55 AM 42.8 °F 35.1 °F 30.2 °F 61% 30.20 in 10.0 mi ENE 16.1 mph - N/A   Overcast
6:15 AM 42.8 °F 36.6 °F 30.2 °F 61% 30.20 in 10.0 mi East 11.5 mph 16.1 mph N/A   Overcast
6:35 AM 42.8 °F 35.4 °F 30.2 °F 61% 30.21 in 10.0 mi ENE 15.0 mph - N/A   Overcast
6:55 AM 42.8 °F 35.8 °F 30.2 °F 61% 30.21 in 10.0 mi ENE 13.8 mph 19.6 mph N/A   Overcast
7:15 AM 41.0 °F 33.1 °F 28.4 °F 61% 30.22 in 10.0 mi East 15.0 mph 18.4 mph N/A   Overcast
7:35 AM 41.0 °F 33.5 °F 28.4 °F 61% 30.22 in 10.0 mi ENE 13.8 mph 17.3 mph N/A   Overcast
7:55 AM 41.0 °F 33.1 °F 28.4 °F 61% 30.22 in 10.0 mi East 15.0 mph - N/A   Overcast
8:15 AM 41.0 °F 34.3 °F 28.4 °F 61% 30.23 in 10.0 mi East 11.5 mph - N/A   Overcast
8:35 AM 41.0 °F 33.5 °F 28.4 °F 61% 30.23 in 10.0 mi East 13.8 mph - N/A   Overcast
8:55 AM 41.0 °F 34.7 °F 28.4 °F 61% 30.24 in 10.0 mi East 10.4 mph - N/A   Overcast
9:15 AM 41.0 °F 33.9 °F 28.4 °F 61% 30.24 in 10.0 mi East 12.7 mph - N/A   Overcast
9:35 AM 41.0 °F 33.5 °F 28.4 °F 61% 30.24 in 10.0 mi East 13.8 mph 18.4 mph N/A   Overcast
9:55 AM 42.8 °F 35.4 °F 28.4 °F 57% 30.24 in 10.0 mi East 15.0 mph - N/A   Overcast
10:15 AM 42.8 °F 36.2 °F 28.4 °F 57% 30.24 in 10.0 mi East 12.7 mph - N/A   Overcast
10:35 AM 42.8 °F 35.8 °F 28.4 °F 57% 30.24 in 10.0 mi East 13.8 mph - N/A   Overcast
10:55 AM 42.8 °F 36.2 °F 30.2 °F 61% 30.23 in 10.0 mi East 12.7 mph - N/A   Overcast
11:15 AM 42.8 °F 37.0 °F 28.4 °F 57% 30.23 in 10.0 mi ENE 10.4 mph - N/A   Overcast
11:35 AM 42.8 °F 37.0 °F 30.2 °F 61% 30.23 in 10.0 mi East 10.4 mph - N/A   Overcast
11:55 AM 42.8 °F 37.0 °F 30.2 °F 61% 30.23 in 10.0 mi NE 10.4 mph - N/A   Overcast
12:15 PM 42.8 °F 37.0 °F 30.2 °F 61% 30.22 in 10.0 mi ENE 10.4 mph - N/A   Overcast
12:35 PM 42.8 °F 37.5 °F 30.2 °F 61% 30.23 in 10.0 mi ENE 9.2 mph - N/A   Overcast
12:55 PM 42.8 °F 38.0 °F 30.2 °F 61% 30.23 in 10.0 mi ENE 8.1 mph - N/A   Overcast
1:15 PM 44.6 °F 39.2 °F 32.0 °F 61% 30.22 in 10.0 mi East 10.4 mph 16.1 mph N/A   Overcast
1:35 PM 44.6 °F 39.2 °F 32.0 °F 61% 30.21 in 10.0 mi ENE 10.4 mph - N/A   Overcast
1:55 PM 44.6 °F 39.7 °F 30.2 °F 57% 30.20 in 10.0 mi ENE 9.2 mph - N/A   Overcast
2:15 PM 44.6 °F 39.7 °F 32.0 °F 61% 30.20 in 10.0 mi ENE 9.2 mph - N/A   Overcast
2:35 PM 46.4 °F 41.5 °F 32.0 °F 57% 30.19 in 10.0 mi ENE 10.4 mph - N/A   Overcast
2:55 PM 50.0 °F - 32.0 °F 50% 30.18 in 10.0 mi NE 12.7 mph 16.1 mph N/A   Overcast
3:15 PM 46.4 °F 41.9 °F 30.2 °F 53% 30.18 in 10.0 mi ENE 9.2 mph - N/A   Overcast
3:35 PM 46.4 °F 41.1 °F 30.2 °F 53% 30.18 in 10.0 mi ENE 11.5 mph - N/A   Overcast
3:55 PM 46.4 °F 40.4 °F 30.2 °F 53% 30.16 in 10.0 mi East 13.8 mph 17.3 mph N/A   Overcast
4:15 PM 46.4 °F 41.1 °F 30.2 °F 53% 30.17 in 10.0 mi ENE 11.5 mph 17.3 mph N/A   Overcast
4:35 PM 46.4 °F 41.5 °F 30.2 °F 53% 30.18 in 10.0 mi NE 10.4 mph - N/A   Overcast
4:55 PM 46.4 °F 41.1 °F 30.2 °F 53% 30.18 in 10.0 mi NE 11.5 mph 18.4 mph N/A   Overcast
5:15 PM 46.4 °F 41.1 °F 30.2 °F 53% 30.17 in 10.0 mi ENE 11.5 mph - N/A   Overcast
5:35 PM 44.6 °F 39.7 °F 30.2 °F 57% 30.18 in 10.0 mi ENE 9.2 mph - N/A   Overcast
5:55 PM 46.4 °F 41.1 °F 32.0 °F 57% 30.18 in 10.0 mi ENE 11.5 mph - N/A   Overcast
6:15 PM 44.6 °F 38.4 °F 30.2 °F 57% 30.19 in 10.0 mi ENE 12.7 mph - N/A   Overcast
6:35 PM 44.6 °F 38.1 °F 30.2 °F 57% 30.19 in 10.0 mi ENE 13.8 mph - N/A   Overcast
6:55 PM 42.8 °F 35.4 °F 28.4 °F 57% 30.20 in 10.0 mi ENE 15.0 mph - N/A   Overcast
7:15 PM 42.8 °F 36.2 °F 28.4 °F 57% 30.20 in 10.0 mi ENE 12.7 mph - N/A   Overcast
7:35 PM 42.8 °F 36.2 °F 28.4 °F 57% 30.21 in 10.0 mi ENE 12.7 mph - N/A   Overcast
7:55 PM 42.8 °F 36.6 °F 28.4 °F 57% 30.23 in 10.0 mi ENE 11.5 mph - N/A   Overcast
8:15 PM 42.8 °F 35.8 °F 28.4 °F 57% 30.23 in 10.0 mi ENE 13.8 mph - N/A   Overcast
8:35 PM 42.8 °F 36.6 °F 28.4 °F 57% 30.24 in 10.0 mi ENE 11.5 mph - N/A   Overcast
8:55 PM 41.0 °F 33.1 °F 28.4 °F 61% 30.25 in 10.0 mi ENE 15.0 mph - N/A   Overcast
11:15 PM 39.2 °F 33.6 °F 30.2 °F 70% 30.30 in 10.0 mi ENE 8.1 mph - N/A   Clear
11:55 PM 39.2 °F 33.0 °F 30.2 °F 70% 30.30 in 10.0 mi ENE 9.2 mph - N/A   Clear